Location: Castillon
(43.0896°N, 0.2156°E)
Time: 04:38:37
(UTC+00:00)

Cosmos 1980 Rocket - Pass Details

Date: 17 October 2021
Orbit: 828 x 851 km, 71.0° (Epoch: 07 December)

Event Time Altitude Azimuth Distance (km) Brightness Sun altitude
Exits shadow 05:35:18 - 316° (NW) 3,301 4.8 -8.0°
Reaches altitude 10° 05:38:25 10° 296° (WNW) 2,482 4.0 -7.5°
Maximum altitude 05:41:30 15° 263° (W) 2,140 3.7 -6.9°
Drops below altitude 10° 05:44:34 10° 229° (SW) 2,470 4.2 -6.4°
Sets 05:48:04 0° 207° (SSW) 3,396 5.1 -5.7°
